Change the Weather History Date:

Thursday, April 4, 2013

  Actual Average Record
Temperature  
Mean Temperature 46 °F -  
Max Temperature 59 °F 62 °F 78 °F (2003)
Min Temperature 34 °F 45 °F 28 °F (2002)
Degree Days  
Heating Degree Days 18    
Moisture  
Dew Point 24 °F    
Average Humidity 44    
Maximum Humidity 70    
Minimum Humidity 25    
Precipitation  
Precipitation 0.00 in - - ()
Sea Level Pressure  
Sea Level Pressure 30.13 in    
Wind  
Wind Speed 5 mph (North)    
Max Wind Speed 12 mph    
Max Gust Speed -    
Visibility 10 miles    
Events      
Averages and records for this station are not official NWS values.
T = Trace of Precipitation, MM = Missing Value Source: NWS Daily Summary

Daily Weather History Graph

Daily Weather History Graph

Search for Another Location

Airport or City:

Trip Planner

Search our weather history database for the weather conditions in past years. The results will help you decide how hot, cold, wet, or windy it might be!

Date:

Astronomy

Apr. 04, 2013 Rise Set
Actual Time 6:49 AM CDT 7:34 PM CDT
Civil Twilight 6:22 AM CDT 8:01 PM CDT
Nautical Twilight 5:51 AM CDT 8:32 PM CDT
Astronomical Twilight 5:18 AM CDT 9:04 PM CDT
Moon 3:09 AM CDT (4/4) 1:58 PM CDT (4/4)
Length of Visible Light 13h 38m
Length of Day
12h 45m
Waning Crescent, 33% of the Moon is Illuminated
Apr 4
Waning Crescent
Apr 10
New
Apr 18
First Quarter
Apr 25
Full
May 2
Last Quarter

Hourly Weather History & Observations

Time (CDT) Temp. Windchill Dew Point Humidity Pressure Visibility Wind Dir Wind Speed Gust Speed Precip Events Conditions
12:58 AM 39.7 °F 35.6 °F 23.5 °F 52% 30.21 in 10.0 mi East 5.8 mph - N/A   Mostly Cloudy
1:58 AM 38.8 °F 36.5 °F 23.2 °F 53% 30.21 in 10.0 mi East 3.5 mph - N/A   Scattered Clouds
2:58 AM 37.4 °F 33.8 °F 23.2 °F 57% 30.18 in 10.0 mi NE 4.6 mph - N/A   Clear
3:58 AM 36.5 °F 32.7 °F 23.2 °F 59% 30.17 in 10.0 mi NE 4.6 mph - N/A   Clear
4:58 AM 34.0 °F - 25.2 °F 70% 30.18 in 10.0 mi North 2.3 mph - N/A   Overcast
5:58 AM 35.4 °F 31.5 °F 24.4 °F 64% 30.16 in 10.0 mi NNE 4.6 mph - N/A   Overcast
6:58 AM 35.8 °F 33.0 °F 25.2 °F 65% 30.18 in 10.0 mi NNE 3.5 mph - N/A   Overcast
7:58 AM 38.1 °F 34.6 °F 25.9 °F 61% 30.19 in 10.0 mi NNE 4.6 mph - N/A   Overcast
8:58 AM 40.5 °F 36.5 °F 26.1 °F 57% 30.17 in 10.0 mi NE 5.8 mph - N/A   Overcast
9:58 AM 46.2 °F 43.3 °F 24.1 °F 42% 30.14 in 10.0 mi ENE 5.8 mph - N/A   Mostly Cloudy
10:58 AM 48.7 °F - 20.5 °F 33% 30.13 in 10.0 mi NE 5.8 mph - N/A   Overcast
11:58 AM 52.7 °F - 22.5 °F 31% 30.12 in 10.0 mi NNW 9.2 mph - N/A   Clear
12:58 PM 55.0 °F - 22.1 °F 28% 30.11 in 10.0 mi Variable 4.6 mph - N/A   Scattered Clouds
1:58 PM 55.4 °F - 20.8 °F 26% 30.09 in 10.0 mi NNE 11.5 mph - N/A   Clear
2:58 PM 57.4 °F - 21.6 °F 25% 30.08 in 10.0 mi Variable 3.5 mph - N/A   Clear
3:58 PM 59.0 °F - 24.1 °F 26% 30.06 in 10.0 mi NE 8.1 mph - N/A   Overcast
4:58 PM 57.0 °F - 22.3 °F 26% 30.06 in 10.0 mi NW 6.9 mph - N/A   Mostly Cloudy
5:58 PM 56.1 °F - 26.1 °F 31% 30.06 in 10.0 mi NNW 8.1 mph - N/A   Overcast
6:58 PM 53.8 °F - 25.0 °F 33% 30.07 in 10.0 mi NW 8.1 mph - N/A   Partly Cloudy
7:58 PM 50.9 °F - 24.1 °F 35% 30.07 in 10.0 mi NW 4.6 mph - N/A   Clear
8:58 PM 49.1 °F - 22.3 °F 35% 30.09 in 10.0 mi NNW 1.2 mph - N/A   Clear
9:58 PM 47.1 °F - 24.1 °F 40% 30.11 in 10.0 mi WNW 5.8 mph - N/A   Clear
10:58 PM 45.9 °F - 25.9 °F 46% 30.11 in 10.0 mi West 2.3 mph - N/A   Clear
11:58 PM 43.5 °F - 26.2 °F 51% 30.12 in 10.0 mi West 2.3 mph - N/A   Clear